Regional Weather Roundup
Issued by NWS Cleveland, OH

Home | Current Version | Previous Version | Graphics & Text | Print | Product List | Glossary On
Versions: 1 2 3 4 5 6 7 8 9 10 11 12 13 14 15 16 17 18 19 20 21 22 23 24 25 26 27 28 29 30 31 32 33 34 35 36 37 38 39 40 41 42 43 44 45 46 47 48 49 50
000
ASUS41 KCLE 201310
RWRCLE
OHIO REGIONAL WEATHER ROUNDUP
NATIONAL WEATHER SERVICE WILMINGTON, OH
900 AM EDT WED AUG 20 2014

NOTE: "FAIR" INDICATES FEW OR NO CLOUDS BELOW 12,000 FEET WITH NO
SIGNIFICANT WEATHER AND/OR OBSTRUCTIONS TO VISIBILITY.

OHZ001>008-015>018-024>027-034-035-043-044-201400-
   NORTHWEST OHIO

CITY           SKY/WX    TMP DP  RH WIND       PRES   REMARKS
DEFIANCE       SUNNY     70  66  87 VRB5      29.87R
FINDLAY        SUNNY     72  67  84 MISG      29.87R
TOLEDO EXPRESS MOSUNNY   69  66  90 W7        29.85R
TOLEDO METCALF SUNNY     70  66  87 SW8       29.86R
LIMA           MOSUNNY   71  66  84 SW9       29.89R
$$

OHZ009>014-019>023-028>033-038-089-201400-
   NORTHEAST OHIO

CITY           SKY/WX    TMP DP  RH WIND       PRES   REMARKS
CLE-HOPKINS    MOSUNNY   68  66  93 S10       29.90R
CLE-LAKEFRONT  PTSUNNY   69  65  86 S10       29.86R
CUY CO. ARPT   PTSUNNY   70  68  94 S16       29.88S
LORAIN-ELYRIA  SUNNY     72  66  81 S10       29.89R
ASHTABULA      LGT RAIN  66  64  93 S8        29.91R
AKRON-CANTON   CLOUDY    67  64  90 S8        29.92R
WOOSTER        PTSUNNY   68  65  90 S8        29.93R
MANSFIELD      MOSUNNY   70  68  93 SW6       29.91R
YOUNGSTOWN     RAIN      65  63  93 S10       29.92F FOG
$$

OHZ042-051>053-060>062-070>072-077>081-201400-
  SOUTHWEST OHIO

CITY           SKY/WX    TMP DP  RH WIND       PRES   REMARKS
CINC-COVINGTON MOSUNNY   69  66  90 S8        29.93R
CINC-LUNKEN    PTSUNNY   69  66  90 S6        29.94R
HAMILTON       SUNNY     71  67  87 CALM      29.94R
DAYTON         MOSUNNY   71  64  78 SW8       29.93R
WRIGHT-PAT AFB SUNNY     71  65  82 SW9       29.92R
DAYTON GENERAL MOSUNNY   69  66  90 SW6       29.92R
WILMINGTON     SUNNY     69  65  86 SW8       29.94R
$$

OHZ036-037-039>041-045>050-054>059-063>069-073>076-082>088-201400-
  CENTRAL AND SOUTHEAST OHIO

CITY           SKY/WX    TMP DP  RH WIND       PRES   REMARKS
COLUMBUS       MOSUNNY   72  65  78 SW6       29.91R
OSU AIRPORT    MOSUNNY   71  64  78 SW6       29.92R
BOLTON FIELD   MOSUNNY   68  66  94 SW6       29.92R
RICKENBACK AFB PTSUNNY   70  63  78 SW9       29.92R
NEWARK         MOSUNNY   71  66  84 SW6       29.92R
MARION         SUNNY     72  67  84 SW6       29.90R HAZE
LANCASTER      SUNNY     71  66  84 SW5       29.93R
ZANESVILLE     CLOUDY    69  66  90 SE5       29.93R
NEW PHILLY     CLOUDY    66  65  96 SE6       29.93R
$$



USA.gov is the U.S. government's official web portal to all federal, state and local government web resources and services.